Estación de Sagrada Familia

Ultimos registro cada 15 minutos 38
Estación Fecha / Hora Temperatura Humedad Lluvia Velocidad Dirección Radiación Presion
38 Sagrada Familia 05-05-2026 09:15 13,2 89 0 0 100 109 1013,3
37 Sagrada Familia 05-05-2026 09:00 12,8 89 0 0,4 294 109 1013,1
36 Sagrada Familia 05-05-2026 08:45 12,2 91 0 0 204 72 1012,5
35 Sagrada Familia 05-05-2026 08:30 11,5 93 0 0 262 62 1013,4
34 Sagrada Familia 05-05-2026 08:15 11,1 94 0 0 323 30 1012,9
33 Sagrada Familia 05-05-2026 08:00 10,9 94 0 0 331 23 1013,6
32 Sagrada Familia 05-05-2026 07:45 10,6 94 0 0 173 11 1013,2
31 Sagrada Familia 05-05-2026 07:30 10,6 94 0 0 52 0 1014
30 Sagrada Familia 05-05-2026 07:15 10,7 94 0 0 45 0 1014
29 Sagrada Familia 05-05-2026 07:00 10,4 95 0 0 177 0 1014,1
28 Sagrada Familia 05-05-2026 06:45 10,3 95 0 0 125 0 1014,1
27 Sagrada Familia 05-05-2026 06:30 10,2 95 0 0 163 0 1014,2
26 Sagrada Familia 05-05-2026 06:15 10,1 95 0 0 104 0 1015,2
25 Sagrada Familia 05-05-2026 06:00 10,1 95 0 0 2 0 1015,4
24 Sagrada Familia 05-05-2026 05:45 10,1 95 0 0,4 333 0 1015,5
23 Sagrada Familia 05-05-2026 05:30 9,9 95 0 0,4 168 0 1015,1
22 Sagrada Familia 05-05-2026 05:15 9,9 95 0 0 163 0 1015,1
21 Sagrada Familia 05-05-2026 05:00 9,9 95 0 0 163 0 1014,7
20 Sagrada Familia 05-05-2026 04:45 9,8 95 0 0 168 0 1015,2
19 Sagrada Familia 05-05-2026 04:30 9,8 95 0 0 168 0 1014,9
18 Sagrada Familia 05-05-2026 04:15 9,7 95 0 0 168 0 1015,1
17 Sagrada Familia 05-05-2026 04:00 9,6 95 0 0 168 0 1014,3
16 Sagrada Familia 05-05-2026 03:45 9,6 94 0 0 168 0 1014,1
15 Sagrada Familia 05-05-2026 03:30 9,6 95 0 0 154 0 1014,4
14 Sagrada Familia 05-05-2026 03:15 9,5 94 0 0 154 0 1014,4
13 Sagrada Familia 05-05-2026 03:00 9,5 94 0 0 154 0 1014,7
12 Sagrada Familia 05-05-2026 02:45 9,5 94 0 0 154 0 1014,8
11 Sagrada Familia 05-05-2026 02:30 9,4 94 0 0 92 0 1014,7
10 Sagrada Familia 05-05-2026 02:15 9,3 94 0 0 92 0 1014,9
9 Sagrada Familia 05-05-2026 02:00 9,3 94 0 0 92 0 1015,2
8 Sagrada Familia 05-05-2026 01:45 9,2 94 0 0 92 0 1015,2
7 Sagrada Familia 05-05-2026 01:30 9,2 94 0 0 92 0 1015,2
6 Sagrada Familia 05-05-2026 01:15 8,9 94 0 0 92 0 1015,2
5 Sagrada Familia 05-05-2026 01:00 8,9 93 0 0 92 0 1015,3
4 Sagrada Familia 05-05-2026 00:45 8,9 92 0 0 92 0 1015,4
3 Sagrada Familia 05-05-2026 00:30 9,1 92 0 0 92 0 1015,3
2 Sagrada Familia 05-05-2026 00:15 9,4 92 0 0 92 0 1015,4
1 Sagrada Familia 05-05-2026 00:00 9,7 92 0 0 92 0 1015,3